Showing default

OPS 7034 (TRANSIT 18), 3133

Orbit data source: Space-Track

OPS 7034 (TRANSIT 18), 3133 is a payload satellite owned by USN NAVAIR (US) in LEO that was launched on Sat, 02 Mar 1968 UTC via an SCOUT A launch vehicle from the Air Force Western Test Range (AFWTR). Payload-class satellites include a variety of spacecraft equipped with specific instruments for various scientific and technological missions. These include communications satellites like Starlink; space stations such as the ISS; scientific satellites like the Hubble; Earth observation satellites from companies like Planet Labs, Umbra, and HawkEye 360; GPS; miniature CubeSats for education and research; and military/defense satellites.

Loading next visibility...
Identifier
3133, 1968-012A
Orbit
LEO
Country
Flag of USUS
Related business
Manufacturer
RCA/East Windsor
Mission
Defense Navigation
Bus & Motor
TRANSIT 5, Unknown motor
Mass
60 kg wet, 60 kg dry
Launch date (UTC)
1968-03-02 (58 years ago)
Launch vehicle
SCOUT A
Launch site
Air Force Western Test Range (AFWTR)
Object type
Payload
Rocket body
Debris
Shape & HBR
Oct Cyl + 4 Pan + 1 Rod, Unknown HBR
Radar Cross Section
7.565 m², Large (>1 m²)

Expand to show TLE details & history
Last TLE update: 14 hours ago

TLE from 14 hours ago
0 OPS 7034 (TRANSIT 18)
1 03133U 68012A   25259.58032177  .00000121  00000-0  16688-3 0  9999
2 03133  90.0194 273.4407 0075795  63.8770  48.1178 13.51537250557419
Epoch: 2025-09-16T13:55Z
TLE epoch observation values (Epoch: 2025-09-16T13:55:39.8Z)
Latitude
67.43152°
Longitude
-111.19728°
Altitude
1,040.923 km
Speed
7.356 km/s
True Right ascension
06h 13m 56s
True Declination
67° 18' 51"
Sunlit
Object was in daylight at epoch
Visualization orbit readout
Latitude
Unknown
Longitude
Unknown
Altitude
Unknown
Speed
Unknown
Apparent Right ascension
Unknown
Apparent Declination
Unknown
Sunlit
N/A
Visualization observer readout
Local Sidereal Time
20:35:09
Azimuth
Unknown
Elevation
Unknown
Doppler factor
Unknown
Orbital elements
Apogee altitude
1,120.06 km
Perigee altitude
1,007.25 km
Semi-major axis
7,441.792 km
Eccentricity
0.00758
Inclination
90.0194°
RAAN
273.4407°
Arg. of periapsis
63.877°
True anomaly
48.76855°
Mean anomaly
48.1178°
Eccentric anomaly
48.44276°
Mean motion
3.38086 °/min
Orbital period
106.48 mins
BSTAR
0.00016688
Loading maneuver chart data...
Computing Atmospheric mass density...
Loading historical data...
Loading historical data...
Loading historical data...
Loading historical data...
Loading historical data...
Loading historical data...
Loading historical data...

Documentation

Showing up to 5 results
|